[[{"header":{"parameterUnit":"m.s-1","parameterCategory":1,"la1":30.2991,"la2":30.254,"lo1":-89.0895,"lo2":-89.0444,"dy":0.0017,"dx":0.0017,"nx":28,"ny":28,"refTime":"2024-07-30T21:00:00:Z","depth":0,"parameterNumber":2,"parameterNumberName":"U-component_of_WINDS"},"data":[0,0,0,0,0,0,0,0,0,0,0,0,0,0,0,0,0,0,0,0,0,0,0,0,0,0,0,0,0,0,0,0,0,0,0,0,0,0,0,0,0,0,0,0,0,0,0,0,0,0,0,0,0,0,0,0,0,0,2.5641,2.5642,0,2.5705,2.5706,2.5707,2.57,2.5699,2.5698,2.5697,2.5763,2.5766,2.5769,0,0,0,0,0,0,0,0,0,0,0,0,0,2.5516,2.5519,2.5641,2.5642,2.5643,2.5705,2.5706,2.5707,2.57,2.5699,2.5698,2.5696,2.5762,2.5766,2.5769,0,0,0,0,0,0,0,0,0,0,0,0,0,2.5574,2.5519,2.5641,2.5647,2.5648,2.5705,2.5706,2.5707,2.57,2.5699,2.5697,2.5696,2.5761,2.5765,2.5769,2.5825,0,0,2.5782,2.5783,0,0,0,0,0,0,0,0,2.5571,2.5579,2.5645,2.5647,2.5648,2.5693,2.5686,2.5746,2.5701,2.5681,2.5697,2.5695,2.5741,2.5747,2.5762,2.5828,2.5831,2.5782,2.5784,2.5786,2.5787,0,0,0,0,0,0,0,2.5567,2.5576,2.5667,2.5646,2.5648,2.5647,2.5654,2.5698,2.5719,2.5682,2.5682,2.5689,2.5742,2.5758,2.5764,2.5831,2.5782,2.5786,2.5788,2.579,2.5948,2.595,0,0,0,0,0,0,2.5561,2.5573,2.5665,2.5668,2.5605,2.5651,2.5658,2.568,2.5718,2.5722,2.5691,2.5689,2.5752,2.5759,2.5766,2.5834,2.5786,2.579,2.5792,2.5946,2.5949,2.595,0,0,0,0,0,0,2.5559,2.557,2.5662,2.5621,2.5632,2.5655,2.5679,2.5682,2.5699,2.5724,2.5728,2.5703,2.5751,2.576,2.581,2.5837,2.5792,2.5796,2.5944,2.5947,2.5949,2.5971,0,0,0,0,0,0,2.5555,2.5569,2.5589,2.5621,2.5635,2.5705,2.5681,2.5684,2.5706,2.5704,2.5738,2.5742,2.5751,2.5804,2.5815,2.5841,2.5799,2.5942,2.5946,2.5949,2.5968,2.5974,2.5979,0,0,0,0,0,2.5551,2.5592,2.559,2.5601,2.566,2.5706,2.5714,2.5723,2.5708,2.5729,2.5746,2.5741,2.5832,2.581,2.5821,2.5849,2.594,2.5945,2.5948,2.5965,2.5973,2.5979,0,0,0,0,0,0,2.5562,2.5597,2.5594,2.5648,2.5674,2.5705,2.5732,2.573,2.5762,2.5759,2.5769,2.5777,2.5828,2.5844,2.5818,2.5906,2.5884,2.5891,2.5894,2.5901,2.5906,2.5901,2.5802,0,0,0,0,0,2.5571,2.5605,2.5633,2.5677,2.5691,2.5709,2.5729,2.5734,2.5762,2.5773,2.5794,2.5822,2.5857,2.588,2.5913,2.5971,2.5979,2.5996,2.6002,2.6006,2.6011,2.6045,2.6053,2.5964,2.5964,2.5963,0,0,2.559,2.5612,2.5633,2.568,2.5701,2.5737,2.5718,2.5756,2.5783,2.5779,2.5828,2.5844,2.5876,2.5931,2.5956,2.5946,2.6038,2.6011,2.6015,2.6018,2.605,2.6058,2.6066,2.5966,2.5966,2.5965,0,0,2.5641,2.5662,2.5701,2.5723,2.5756,2.5768,2.5778,2.581,2.582,2.587,2.5868,2.5901,2.596,2.5984,2.6003,2.6067,2.6064,2.6078,2.6107,2.6139,2.6146,2.6152,2.6176,2.6184,2.6083,2.6083,2.6083,0,2.566,2.5713,2.5722,2.5761,2.5783,2.5781,2.5822,2.5843,2.5885,2.5901,2.5889,2.5966,2.5987,2.6047,2.6063,2.6079,2.6091,2.6074,2.6144,2.6151,2.6157,2.6179,2.6188,2.6085,2.6085,2.6085,2.6084,0,2.5735,2.5772,2.58,2.5841,2.5866,2.5906,2.5922,2.5947,2.595,2.5964,2.6016,2.6042,2.6081,2.6096,2.61,2.6158,2.6151,2.6142,2.612,2.6167,2.6188,2.6197,2.6087,2.6086,2.6086,2.6086,0,0,2.5794,2.5841,2.5851,2.5871,2.5908,2.5937,2.5978,2.6016,2.6038,2.6067,2.6103,2.6155,2.6147,2.6169,2.6176,2.6204,2.6254,2.6192,2.6193,2.6203,2.6322,2.6329,2.6338,2.6253,2.6255,2.6256,2.6319,0,2.585,2.5921,2.5932,2.5995,2.603,2.6031,2.6067,2.6094,2.6109,2.6141,2.6158,2.6195,2.6182,2.6195,2.6224,2.6242,2.6278,2.6238,2.6286,2.6288,2.6278,2.6349,2.6356,2.6415,2.6328,2.6329,2.633,0,2.5924,2.5956,2.6023,2.6057,2.6072,2.6104,2.6141,2.6172,2.6204,2.6213,2.6239,2.6243,2.6287,2.6264,2.6325,2.6297,2.6318,2.6331,2.6333,2.6338,2.6312,2.6356,2.6434,2.6442,2.6343,2.6342,2.6341,0,2.5961,2.6021,2.6069,2.6086,2.6126,2.6149,2.6167,2.6197,2.6221,2.6254,2.627,2.6308,2.6329,2.6359,2.6373,2.6355,2.6434,2.6412,2.6444,2.6443,2.6459,2.6458,2.6541,2.6473,2.6473,2.6473,2.6473,0,2.6022,2.6063,2.6087,2.6116,2.6163,2.6176,2.6222,2.624,2.6267,2.6301,2.6304,2.6336,2.6353,2.6389,2.64,2.645,2.6459,2.6469,2.6471,2.6468,2.6467,2.6482,2.6478,2.6475,2.6475,2.6474,2.6474,0,2.6071,2.6088,2.6141,2.6176,2.6186,2.6219,2.6249,2.6279,2.6294,2.6337,2.6348,2.6373,2.6414,2.6432,2.6483,2.6491,2.6548,2.6548,2.6537,2.6538,2.6569,2.6566,2.6664,2.6678,2.6601,2.6601,2.6602,0,2.6108,2.614,2.6179,2.6202,2.6221,2.6258,2.6282,2.6297,2.6322,2.6362,2.6387,2.6429,2.6463,2.653,2.6553,2.6592,2.6593,2.6625,2.6599,2.6595,2.6594,2.6592,2.6596,2.6629,2.663,2.6631,2.6631,0,2.6174,2.6181,2.6216,2.6255,2.6284,2.6315,2.6345,2.6364,2.6384,2.6412,2.6455,2.6481,2.6534,2.6576,2.6618,2.6637,2.6638,2.6639,2.6649,2.6646,2.6639,2.6644,2.655,2.6637,2.6636,2.6636,2.6636,2.6635,2.6219,2.6248,2.628,2.6319,2.6343,2.6372,2.6402,2.6422,2.6458,2.6502,2.6509,2.6555,2.6588,2.6644,2.6665,2.6702,2.6694,2.6708,2.6711,2.6714,2.6717,2.6633,2.671,2.671,2.671,2.6709,2.6709,0,2.6285,2.6306,2.6342,2.6384,2.6416,2.6414,2.6448,2.6475,2.6515,2.6546,2.6579,2.663,2.6671,2.6698,2.674,2.6764,2.6766,2.6775,2.6773,2.6778,2.6721,2.6709,2.6773,2.6773,2.6773,2.6773,2.6773,2.6773,2.6322,2.6372,2.6384,2.6446,2.6467,2.6512,2.6532,2.6559,2.6584,2.6639,2.6674,2.6691,2.6721,2.6765,2.6804,2.6811,2.6826,2.6836,2.6842,2.6788,2.6782,2.6775,2.6764,2.6839,2.6839,2.6896,2.6897,2.6897]},{"header":{"parameterUnit":"m.s-1","parameterCategory":1,"la1":30.2991,"la2":30.254,"lo1":-89.0895,"lo2":-89.0444,"dy":0.0017,"dx":0.0017,"nx":28,"ny":28,"refTime":"2024-07-30T21:00:00:Z","depth":0,"parameterNumber":3,"parameterNumberName":"V-component_of_WINDS"},"data":[0,0,0,0,0,0,0,0,0,0,0,0,0,0,0,0,0,0,0,0,0,0,0,0,0,0,0,0,0,0,0,0,0,0,0,0,0,0,0,0,0,0,0,0,0,0,0,0,0,0,0,0,0,0,0,0,0,0,-0.8692,-0.8692,0,-0.8695,-0.8695,-0.8695,-0.8697,-0.8697,-0.8697,-0.8697,-0.87,-0.87,-0.87,0,0,0,0,0,0,0,0,0,0,0,0,0,-0.8689,-0.8689,-0.8692,-0.8692,-0.8692,-0.8695,-0.8695,-0.8695,-0.8697,-0.8697,-0.8697,-0.8697,-0.87,-0.87,-0.87,0,0,0,0,0,0,0,0,0,0,0,0,0,-0.8691,-0.8689,-0.8692,-0.8693,-0.8694,-0.8695,-0.8695,-0.8695,-0.8697,-0.8697,-0.8697,-0.8697,-0.87,-0.87,-0.87,-0.87,0,0,-0.8701,-0.8701,0,0,0,0,0,0,0,0,-0.8691,-0.8691,-0.8693,-0.8693,-0.8694,-0.8696,-0.8695,-0.8697,-0.8697,-0.8696,-0.8697,-0.8697,-0.8699,-0.8699,-0.8699,-0.87,-0.8701,-0.8701,-0.8701,-0.8701,-0.8701,0,0,0,0,0,0,0,-0.869,-0.8691,-0.8693,-0.8693,-0.8693,-0.8694,-0.8695,-0.8695,-0.8697,-0.8696,-0.8696,-0.8697,-0.8699,-0.8699,-0.87,-0.8701,-0.8701,-0.8701,-0.8701,-0.8701,-0.8703,-0.8704,0,0,0,0,0,0,-0.869,-0.8691,-0.8693,-0.8693,-0.8692,-0.8694,-0.8695,-0.8695,-0.8697,-0.8697,-0.8697,-0.8697,-0.8699,-0.8699,-0.87,-0.8701,-0.8701,-0.8701,-0.8701,-0.8703,-0.8703,-0.8704,0,0,0,0,0,0,-0.869,-0.869,-0.8693,-0.8692,-0.8692,-0.8694,-0.8695,-0.8695,-0.8696,-0.8698,-0.8698,-0.8697,-0.8699,-0.87,-0.8701,-0.8701,-0.8701,-0.8701,-0.8703,-0.8703,-0.8704,-0.8702,0,0,0,0,0,0,-0.869,-0.869,-0.869,-0.8692,-0.8692,-0.8694,-0.8695,-0.8695,-0.8696,-0.8696,-0.8698,-0.8698,-0.8699,-0.87,-0.8701,-0.8701,-0.8701,-0.8703,-0.8703,-0.8703,-0.8702,-0.8702,-0.8702,0,0,0,0,0,-0.869,-0.8689,-0.869,-0.869,-0.8692,-0.8694,-0.8694,-0.8695,-0.8696,-0.8696,-0.8697,-0.8698,-0.8701,-0.87,-0.8701,-0.8701,-0.8703,-0.8703,-0.8703,-0.8703,-0.8702,-0.8702,0,0,0,0,0,0,-0.8686,-0.8689,-0.869,-0.869,-0.8692,-0.8694,-0.8694,-0.8695,-0.8696,-0.8696,-0.8698,-0.8698,-0.87,-0.87,-0.87,-0.8702,-0.8702,-0.8702,-0.8701,-0.8701,-0.8701,-0.8701,-0.8701,0,0,0,0,0,-0.8686,-0.8687,-0.8689,-0.8689,-0.869,-0.8692,-0.8692,-0.8693,-0.8695,-0.8696,-0.8697,-0.8698,-0.87,-0.8701,-0.8702,-0.8703,-0.8704,-0.8703,-0.8703,-0.8703,-0.8703,-0.8705,-0.8705,-0.8704,-0.8704,-0.8704,0,0,-0.8684,-0.8686,-0.8686,-0.8688,-0.869,-0.8691,-0.8692,-0.8693,-0.8694,-0.8696,-0.8697,-0.8698,-0.87,-0.8701,-0.8702,-0.8702,-0.8704,-0.8703,-0.8703,-0.8703,-0.8705,-0.8705,-0.8706,-0.8704,-0.8704,-0.8704,0,0,-0.8682,-0.8683,-0.8684,-0.8685,-0.8688,-0.8689,-0.8689,-0.8692,-0.8693,-0.8694,-0.8696,-0.8698,-0.8699,-0.8701,-0.8702,-0.8703,-0.8704,-0.8703,-0.8703,-0.8705,-0.8705,-0.8705,-0.8706,-0.8707,-0.8703,-0.8703,-0.8703,0,-0.868,-0.8682,-0.8684,-0.8685,-0.8687,-0.8689,-0.869,-0.8691,-0.8693,-0.8694,-0.8695,-0.8698,-0.87,-0.8702,-0.8702,-0.8703,-0.8704,-0.8703,-0.8705,-0.8705,-0.8705,-0.8706,-0.8707,-0.8703,-0.8703,-0.8703,-0.8703,0,-0.868,-0.8681,-0.8681,-0.8684,-0.8686,-0.8687,-0.8689,-0.869,-0.8692,-0.8694,-0.8696,-0.8698,-0.87,-0.8701,-0.8702,-0.8704,-0.8704,-0.8705,-0.8705,-0.8705,-0.8706,-0.8707,-0.8703,-0.8703,-0.8703,-0.8703,0,0,-0.8675,-0.868,-0.868,-0.8682,-0.8685,-0.8687,-0.8688,-0.8691,-0.8693,-0.8694,-0.8696,-0.8699,-0.87,-0.8701,-0.8703,-0.8704,-0.8706,-0.8705,-0.8705,-0.8706,-0.871,-0.871,-0.871,-0.8707,-0.8707,-0.8707,-0.871,0,-0.8674,-0.8677,-0.868,-0.8682,-0.8684,-0.8687,-0.8688,-0.8691,-0.8693,-0.8695,-0.8697,-0.87,-0.87,-0.8701,-0.8703,-0.8705,-0.8707,-0.8705,-0.8709,-0.8709,-0.8709,-0.871,-0.871,-0.8712,-0.871,-0.871,-0.871,0,-0.8673,-0.8676,-0.8678,-0.8683,-0.8684,-0.8685,-0.8689,-0.869,-0.8694,-0.8695,-0.8698,-0.87,-0.8702,-0.8702,-0.8707,-0.8705,-0.8707,-0.8709,-0.8709,-0.871,-0.871,-0.8712,-0.8713,-0.8714,-0.8711,-0.8711,-0.8711,0,-0.867,-0.8674,-0.8677,-0.8679,-0.8684,-0.8685,-0.8687,-0.869,-0.8692,-0.8695,-0.8697,-0.87,-0.8702,-0.8705,-0.8708,-0.8707,-0.8712,-0.8712,-0.8714,-0.8714,-0.8715,-0.8715,-0.8717,-0.8715,-0.8715,-0.8715,-0.8715,0,-0.8669,-0.8671,-0.8676,-0.8678,-0.868,-0.8684,-0.8686,-0.8688,-0.8692,-0.8694,-0.8697,-0.8699,-0.8703,-0.8706,-0.8708,-0.8712,-0.8713,-0.8714,-0.8715,-0.8715,-0.8714,-0.8716,-0.8716,-0.8715,-0.8715,-0.8715,-0.8715,0,-0.8666,-0.867,-0.8673,-0.8678,-0.8679,-0.8681,-0.8686,-0.8688,-0.869,-0.8694,-0.8695,-0.8699,-0.8703,-0.8706,-0.8711,-0.8713,-0.8717,-0.8718,-0.8716,-0.8717,-0.8719,-0.8719,-0.8722,-0.8724,-0.872,-0.872,-0.872,0,-0.8666,-0.8667,-0.8673,-0.8675,-0.8677,-0.868,-0.8683,-0.8686,-0.8689,-0.8694,-0.8696,-0.87,-0.8703,-0.871,-0.8713,-0.8718,-0.8719,-0.872,-0.8719,-0.8719,-0.872,-0.872,-0.872,-0.872,-0.872,-0.872,-0.872,0,-0.8664,-0.8666,-0.867,-0.8674,-0.8677,-0.868,-0.8684,-0.8686,-0.869,-0.8693,-0.8697,-0.87,-0.8706,-0.871,-0.8715,-0.8718,-0.872,-0.872,-0.8721,-0.872,-0.872,-0.8721,-0.8717,-0.872,-0.872,-0.872,-0.872,-0.872,-0.8663,-0.8665,-0.867,-0.8674,-0.8677,-0.8681,-0.8683,-0.8687,-0.8691,-0.8696,-0.8698,-0.8703,-0.8707,-0.8714,-0.8717,-0.8721,-0.8722,-0.8722,-0.8723,-0.8723,-0.8723,-0.8719,-0.8722,-0.8722,-0.8722,-0.8722,-0.8722,0,-0.8662,-0.8666,-0.867,-0.8675,-0.8679,-0.8681,-0.8685,-0.8688,-0.8692,-0.8696,-0.87,-0.8706,-0.8711,-0.8715,-0.8721,-0.8723,-0.8724,-0.8725,-0.8725,-0.8725,-0.8722,-0.8722,-0.8724,-0.8724,-0.8724,-0.8724,-0.8724,-0.8724,-0.8662,-0.8667,-0.8669,-0.8676,-0.8679,-0.8684,-0.8687,-0.869,-0.8694,-0.87,-0.8705,-0.8708,-0.8713,-0.8719,-0.8723,-0.8725,-0.8727,-0.8727,-0.8729,-0.8726,-0.8725,-0.8725,-0.8725,-0.8727,-0.8727,-0.8731,-0.8731,-0.8731]}]]